Skip Page Navigation
NASA JPL Caltech
NASA Logo - Jet Propulsion Laboratory + View the NASA Portal
+ Near-Earth Object (NEO) Program
Search JPL
JPL Home Earth Solar System Stars & Galaxies Technology
JPL Solar System Dynamics
BODIES ORBITS EPHEMERIDES TOOLS PHYSICAL DATA DISCOVERY FAQ SITE MAP
JPL Small-Body Database Browser
Search: [ help ]  
129099 Spoelhof (2004 XU3)
Classification: Main-belt Asteroid          SPK-ID: 2129099
Ephemeris | Orbit Diagram | Orbital Elements | Physical Parameters | Discovery Circumstances ]

[ hide orbit diagram ]
Orbit Diagram
Note: Make sure you have Java enabled on your browser to see the applet. This applet is provided as a 3D orbit visualization tool. The applet was implemented using 2-body methods, and hence should not be used for determining accurate long-term trajectories (over several years or decades) or planetary encounter circumstances. For accurate long-term ephemerides, please instead use our Horizons system.
Orbit Viewer

Additional Notes: the orbits shown in the applet are color coded. The planets are white lines, and the asteroid/comet is a blue line. The bright white line indicates the portion of the orbit that is above the ecliptic plane, and the darker portion is below the ecliptic plane. Likewise for the asteroid/comet orbit, the light blue indicates the portion above the ecliptic plane, and the dark blue the portion below the ecliptic plane.

Orbit Viewer applet originally written and kindly provided by Osamu Ajiki (AstroArts), and further modified by Ron Baalke (JPL).


Orbital Elements at Epoch 2456400.5 (2013-Apr-18.0) TDB
Reference: MPO235212 (heliocentric ecliptic J2000)
 Element Value Uncertainty (1-sigma)   Units 
e 0.1782933 n/a  
a 3.0805570 n/a AU
q 2.5313143 n/a AU
i 7.49097 n/a deg
node 154.43976 n/a deg
peri 16.81210 n/a deg
M 115.38050 n/a deg
tp 2455767.5459017
(2011-Jul-25.04590170)
n/a JED
period 1974.8872243
5.41
n/a
n/a
d
yr
n 0.18228889 n/a deg/d
Q 3.6297997 n/a AU
  Orbit Determination Parameters
   # obs. used (total)      272  
   first obs. used      2001-??-??  
   last obs. used      2012-06-23  
   # oppositions      8  
   planetary ephem.      DE403  
   condition code      0  
   fit RMS      0.51  
   data source      MPC:mpu  
   producer      MPCLINUX  

Additional Information
 T_jup = 3.190 

Ephemeris | Orbit Diagram | Orbital Elements | Physical Parameters | Discovery Circumstances ]

Physical Parameter Table
Parameter Symbol Value Units Sigma Reference Notes
absolute magnitude H 15.2 mag n/a MPO235212  

129099 Spoelhof           Discovered 2004 Dec. 3 by L. Molnar at the Calvin-Rehoboth Observatory.
William Spoelhof (b. 1909) served as president of Calvin College from 1951 to 1976. Among his achievements at this Christian liberal arts college, he fostered the establishment of an astronomy program. This included the construction of an observatory in 1970.
NOTE: some special characters may not display properly (any characters within {} are an attempt to place the proper accent above a character)
Reference: 20060613/MPCPages.arcLast Updated: 2008-05-22
Ephemeris | Orbit Diagram | Orbital Elements | Physical Parameters | Discovery Circumstances ]
ABOUT SSD CREDITS/AWARDS PRIVACY/COPYRIGHT GLOSSARY LINKS
FirstGov 2013-May-22 11:34 UT
(server date/time)  
NASA Home Page
Site Manager:   Donald K. Yeomans
Webmaster  Alan B. Chamberlin